DELTA 1 DEB

Satellite information

Favourite Embed

Satellite Type and Status

DEBRISIN ORBIT

Key statistics

Satellite DELTA 1 DEB at a glance.

Uptime

17292

Days in orbit

Revolutions

≈ 14.3

Per day

Orbit

SSO

Sun Synchronous Orbit

Inclination

98.6

Latest

Satellite identification and parameters

Extended collection of information and parameters for DELTA 1 DEB.

Object identification

Identified? True

Debris? True

Object name: DELTA 1 DEB

International designator: 1978-026JR

Object number (NORAD): 37654

Object ID (CCSDS): 37654

Country: UNITED STATES OF AMERICA (US)

Current information (Y/N): Y

RCS size: SMALL

Orbital parameters

Period: 100.422 minutes

Inclination: 98.6416 deg

SMA: 7156.705 km

Apoapsis: 856.009 km

Periapsis: 701.13 km

RAAN: 157.1663 deg

Eccentricy: 0.0108206

Argument of periapsis: 275.1307 deg

Mean anomaly: 205.5386 deg

Mean motion: 14.33947071 rev/day

Mean motion (dot): 0.00000159 rev/day2

B* drag term: 0.000069233 1/REarth

Two-line elements (TLE)

Creation date: July 5, 2025, 4:36 a.m.

Reference frame: TEME

Reference center: EARTH

Epoch: July 4, 2025, 6:10 p.m. UTC

TLE line 0: 0 DELTA 1 DEB

TLE line 1: 1 37654U 78026JR 25185.75749023 .00000159 00000-0 69233-4 0 9998

TLE line 2: 2 37654 98.6416 157.1663 0108206 275.1307 205.5386 14.33947071158576

Live tracking on map

Real-time ground track for satellite DELTA 1 DEB.

In-orbit conjunctions

A list of the most updated potential collisions computed for object DELTA 1 DEB.

Target Orbit TCA Probability of collision Miss distance Type
METEOR 2-5 DEB LEO 2025-04-05 00:51:39 0.0001813885 51.0 (m) DEBRIS
PICOSAT 9 LEO 2024-08-12 16:32:58 0.0003834623 977.0 (m) PAYLOAD

Associated space launch

Earth observation satellite

DELTA 1 DEB was lifted into orbit during the mission ‘Delta 2910 | Landsat 3’, on board a Delta 2910 space rocket.

The launch took place on March 5, 1978, 5:54 p.m. from Space Launch Complex 2W.

For more information about the launch, click the button.

Launch to space Delta 2910 | Landsat 3
Delta 2910 | Landsat 3

Agency: N/A

Status: Launch Successful

Launch date: March 5, 1978, 5:54 p.m. UTC

Rocket: Delta 2910

Launch pad: Space Launch Complex 2W

Location: Vandenberg SFB, CA, USA

...

Latest news about this satellite

There are no fresh news available about this satellite. Check back as we update our databases every day.


Newsletter sign-up

Weekly statistics, charts and insights to help you stay on top of the space industry.